| time (UTC) | temp C | wind direction | speed KPH | gust KPH | rain 1hr cm | rain 24hr cm | rain mn cm | humidity % | barometer mb |
| 20260503010042 | 10 | 158 | 1.6 | 4.8 | 0.00 | 0.00 | 0.00 | 49 | 1017.0 |
| 20260503004535 | 10 | 348 | 1.6 | 6.4 | 0.00 | 0.00 | 0.00 | 47 | 1016.8 |
| 20260503003032 | 11 | 296 | 0.0 | 3.2 | 0.00 | 0.00 | 0.00 | 47 | 1016.7 |
| 20260503001528 | 11 | 52 | 1.6 | 4.8 | 0.00 | 0.00 | 0.00 | 46 | 1016.4 |
| 20260503000041 | 11 | 300 | 0.0 | 6.4 | 0.00 | 0.00 | 0.00 | 45 | 1016.3 |
| 20260502234602 | 12 | 13 | 1.6 | 9.7 | 0.00 | 0.00 | 0.00 | 43 | 1016.2 |
| 20260502233049 | 12 | 28 | 1.6 | 12.9 | 0.00 | 0.00 | 0.00 | 44 | 1016.1 |
| 20260502231547 | 12 | 316 | 6.4 | 16.1 | 0.00 | 0.00 | 0.00 | 42 | 1016.0 |
| 20260502230043 | 12 | 288 | 3.2 | 12.9 | 0.00 | 0.00 | 0.00 | 42 | 1016.0 |
| 20260502224540 | 13 | 330 | 1.6 | 17.7 | 0.00 | 0.00 | 0.00 | 42 | 1015.8 |
| 20260502223037 | 13 | 291 | 6.4 | 25.7 | 0.00 | 0.00 | 0.00 | 40 | 1015.7 |
| 20260502221533 | 13 | 275 | 8.0 | 19.3 | 0.00 | 0.00 | 0.00 | 41 | 1015.7 |
| 20260502220033 | 14 | 305 | 8.0 | 22.5 | 0.00 | 0.00 | 0.00 | 40 | 1015.5 |
| 20260502214533 | 14 | 285 | 11.3 | 24.1 | 0.00 | 0.00 | 0.00 | 37 | 1015.4 |
| 20260502213038 | 14 | 266 | 4.8 | 19.3 | 0.00 | 0.00 | 0.00 | 42 | 1015.3 |
| 20260502211533 | 14 | 311 | 3.2 | 25.7 | 0.00 | 0.00 | 0.00 | 40 | 1015.4 |
| 20260502210027 | 14 | 288 | 4.8 | 19.3 | 0.00 | 0.00 | 0.00 | 39 | 1015.4 |
| 20260502204524 | 14 | 275 | 9.7 | 20.9 | 0.00 | 0.00 | 0.00 | 40 | 1015.4 |
| 20260502203021 | 14 | 328 | 12.9 | 20.9 | 0.00 | 0.00 | 0.00 | 40 | 1015.5 |
| 20260502201512 | 15 | 290 | 11.3 | 24.1 | 0.00 | 0.00 | 0.00 | 38 | 1015.6 |
| 20260502200009 | 13 | 248 | 9.7 | 20.9 | 0.00 | 0.00 | 0.00 | 41 | 1015.7 |
| 20260502194506 | 13 | 336 | 9.7 | 17.7 | 0.00 | 0.00 | 0.00 | 42 | 1015.8 |
| 20260502193005 | 13 | 33 | 3.2 | 11.3 | 0.00 | 0.00 | 0.00 | 43 | 1015.8 |
| 20260502191502 | 13 | 336 | 3.2 | 12.9 | 0.00 | 0.00 | 0.00 | 41 | 1015.9 |
| 20260502190002 | 14 | 328 | 4.8 | 17.7 | 0.00 | 0.00 | 0.00 | 40 | 1016.2 |
| 20260502184502 | 16 | 310 | 9.7 | 20.9 | 0.00 | 0.00 | 0.00 | 39 | 1016.1 |
| 20260502183101 | 14 | 267 | 9.7 | 17.7 | 0.00 | 0.00 | 0.00 | 44 | 1016.3 |
| 20260502181600 | 13 | 312 | 14.5 | 25.7 | 0.00 | 0.00 | 0.00 | 41 | 1016.4 |
| 20260502163055 | 15 | 236 | 8.0 | 24.1 | 0.00 | 0.00 | 0.00 | 39 | 1016.7 |
| 20260502161545 | 15 | 271 | 3.2 | 16.1 | 0.00 | 0.00 | 0.00 | 43 | 1016.9 |
| 20260502151557 | 13 | 231 | 1.6 | 14.5 | 0.00 | 0.00 | 0.00 | 48 | 1017.3 |
| 20260502140128 | 11 | 291 | 0.0 | 6.4 | 0.00 | 0.00 | 0.00 | 62 | 1017.4 |
| 20260502123040 | 4 | 197 | 0.0 | 3.2 | 0.00 | 0.00 | 0.00 | 91 | 1017.5 |
| 20260502121539 | 4 | 275 | 0.0 | 4.8 | 0.00 | 0.00 | 0.00 | 91 | 1017.6 |
| 20260502114535 | 3 | 255 | 0.0 | 3.2 | 0.00 | 0.00 | 0.00 | 91 | 1017.4 |
| 20260502113005 | 3 | 255 | 0.0 | 3.2 | 0.00 | 0.00 | 0.00 | 91 | 1017.3 |
| 20260502111505 | 3 | 255 | 0.0 | 1.6 | 0.00 | 0.00 | 0.00 | 91 | 1017.3 |
| 20260502110002 | 3 | 261 | 0.0 | 3.2 | 0.00 | 0.00 | 0.00 | 91 | 1017.0 |
| 20260502104501 | 2 | 261 | 0.0 | 3.2 | 0.00 | 0.00 | 0.00 | 90 | 1017.0 |
| 20260502103108 | 2 | 261 | 0.0 | 0.0 | 0.00 | 0.00 | 0.00 | 90 | 1016.9 |
| 20260502101619 | 2 | 261 | 0.0 | 1.6 | 0.00 | 0.00 | 0.00 | 90 | 1017.1 |
| 20260502100104 | 3 | 261 | 0.0 | 3.2 | 0.00 | 0.00 | 0.00 | 90 | 1017.3 |
| 20260502090113 | 3 | 261 | 0.0 | 1.6 | 0.00 | 0.00 | 0.00 | 89 | 1017.3 |
| 20260502070055 | 3 | 300 | 0.0 | 0.0 | 0.00 | 0.00 | 0.00 | 87 | 1016.9 |
| 20260502064548 | 3 | 300 | 0.0 | 1.6 | 0.00 | 0.00 | 0.00 | 88 | 1017.0 |
| 20260502063047 | 4 | 300 | 0.0 | 1.6 | 0.00 | 0.00 | 0.00 | 87 | 1017.0 |
| 20260502061534 | 4 | 300 | 0.0 | 1.6 | 0.00 | 0.00 | 0.00 | 87 | 1017.2 |
| 20260502060029 | 4 | 300 | 0.0 | 1.6 | 0.00 | 0.00 | 0.00 | 86 | 1017.4 |
| 20260502054534 | 5 | 300 | 0.0 | 1.6 | 0.00 | 0.00 | 0.00 | 85 | 1017.3 |
| 20260502053027 | 5 | 300 | 0.0 | 3.2 | 0.00 | 0.00 | 0.00 | 85 | 1017.5 |
| 20260502051524 | 5 | 300 | 0.0 | 1.6 | 0.00 | 0.00 | 0.00 | 84 | 1017.4 |
| 20260502050032 | 5 | 300 | 0.0 | 0.0 | 0.00 | 0.00 | 0.00 | 83 | 1017.5 |
| 20260502044517 | 6 | 300 | 0.0 | 0.0 | 0.00 | 0.00 | 0.00 | 82 | 1017.4 |
| 20260502043016 | 6 | 300 | 0.0 | 0.0 | 0.00 | 0.00 | 0.00 | 81 | 1017.6 |
| 20260502041513 | 6 | 300 | 0.0 | 1.6 | 0.00 | 0.00 | 0.00 | 80 | 1017.7 |
| 20260502040007 | 7 | 300 | 0.0 | 1.6 | 0.00 | 0.00 | 0.00 | 78 | 1017.7 |
| 20260502034511 | 7 | 300 | 0.0 | 1.6 | 0.00 | 0.00 | 0.00 | 76 | 1017.6 |
| 20260502033002 | 8 | 300 | 0.0 | 0.0 | 0.00 | 0.00 | 0.00 | 73 | 1017.4 |
| 20260502031603 | 8 | 300 | 0.0 | 0.0 | 0.00 | 0.00 | 0.00 | 73 | 1017.3 |
| 20260502030057 | 8 | 300 | 0.0 | 0.0 | 0.00 | 0.00 | 0.00 | 72 | 1017.5 |
| 20260502024606 | 9 | 300 | 0.0 | 0.0 | 0.00 | 0.00 | 0.00 | 69 | 1017.5 |
| 20260502023106 | 9 | 300 | 0.0 | 0.0 | 0.00 | 0.00 | 0.00 | 68 | 1017.7 |
| 20260502021546 | 10 | 300 | 0.0 | 1.6 | 0.00 | 0.00 | 0.00 | 66 | 1017.5 |
| 20260502020040 | 10 | 300 | 0.0 | 3.2 | 0.00 | 0.00 | 0.00 | 65 | 1017.0 |
| 20260502014537 | 10 | 269 | 0.0 | 3.2 | 0.00 | 0.00 | 0.00 | 64 | 1016.6 |
| 20260502013034 | 10 | 274 | 0.0 | 4.8 | 0.00 | 0.00 | 0.00 | 63 | 1016.4 |
| 20260502011531 | 10 | 257 | 1.6 | 6.4 | 0.00 | 0.00 | 0.00 | 63 | 1016.2 |